COSMOS 2485 (747)

Last updated on Jan. 18, 2020, 4:38 a.m. UTC

1 39155U 13019A   20017.30962753  .00000053  00000-0  00000+0 0  9999
2 39155  64.6845 152.5446 0018497 229.1587  86.4674  2.13101906 52351
UTC
Height (km)
Latitude
Longitude
Inclination
Orbital Period
UTC large
Height (km)
Speed (km/s)
/
Latitude / Longitude
Inclination (degrees)
Orbital Period (minutes)
Azimuth
Elevation
Range (km)
Doppler Factor
iOS Compass Heading
iOS Angle

Next 30 passes for location: Hong Kong

Rise time Rise Azimuth (degrees) Set time Set Azimuth (degrees) Duration Max altitude (degrees)

No matching passes for this satellites